Wind_Speed
19 20 20 20 19 18 17 18 18 18 17 17 16 16 16 17 17 16 16 22 14 20 22 19 18 15 15 18 19 24 28 35 36 34 37 34 36 34 36 38 46 40 36 31 32
20 21 22 23 23 22 21 21 20 20 19 19 19 19 18 18 17 17 19 14 19 21 18 16 16 16 14 16 20 22 30 33 30 34 40 40 37 39 43 45 46 50 42 40 36
19 21 24 23 24 24 23 23 23 22 21 21 20 19 19 18 18 18 12 16 19 19 17 17 17 16 14 15 14 22 29 27 29 32 36 41 42 41 45 55 47 53 53 43 41
21 25 24 24 25 25 25 25 24 24 24 23 21 21 20 19 13 12 16 17 19 18 17 17 17 17 17 15 13 24 23 25 28 28 32 37 39 45 49 55 51 53 55 56 50
29 28 25 23 27 27 25 24 24 24 24 24 24 22 20 18 18 16 16 19 19 16 16 16 16 17 18 16 19 25 25 29 31 33 35 36 41 44 50 49 51 54 60 61 58
35 27 26 25 26 25 26 25 25 24 22 23 25 23 19 20 18 16 19 17 18 15 14 15 13 16 17 18 21 27 30 34 35 37 36 40 42 41 50 42 47 55 62 65 62
27 25 27 28 28 27 28 26 25 23 26 26 23 20 17 19 15 18 17 16 17 16 14 13 13 14 17 22 19 29 37 40 40 38 39 29 49 57 45 40 46 48 58 64 60
27 26 24 25 25 25 23 22 23 24 24 19 20 20 19 18 17 12 13 17 17 16 14 14 13 14 17 21 24 32 33 41 38 33 31 22 60 53 37 37 43 46 50 56 63
26 23 27 24 21 20 21 22 22 20 19 20 25 24 21 14 8 13 17 18 17 17 14 14 15 16 19 21 28 25 31 43 46 37 32 25 54 51 44 39 46 43 50 52 60
24 29 26 24 21 19 20 19 17 18 18 19 20 13 8 12 21 21 18 17 17 17 17 16 17 19 21 16 20 26 32 42 47 42 35 40 60 60 53 49 52 49 48 49 53
24 30 25 21 23 21 20 18 19 22 16 17 20 21 21 21 17 14 12 16 15 17 15 18 21 25 22 23 28 33 40 47 46 43 48 55 60 56 53 51 53 54 52 48 48
26 25 24 21 23 23 21 21 22 24 24 21 18 20 20 17 12 9 10 14 15 17 17 17 29 15 20 25 30 35 41 53 58 44 36 51 65 65 61 58 59 62 56 59 51
27 27 26 26 25 23 21 21 22 23 26 22 7 7 7 11 8 9 9 12 16 18 18 22 25 21 26 30 32 38 43 49 50 57 49 50 67 61 55 51 56 59 55 53 63
28 27 26 24 24 21 20 20 21 21 16 6 6 3 1 2 7 4 9 13 18 18 17 20 16 23 27 31 25 37 29 39 48 47 28 23 16 63 46 46 48 40 55 47 50
30 29 25 24 23 21 20 20 19 16 5 3 3 3 3 5 9 14 13 17 21 22 22 28 28 28 30 24 19 35 33 39 46 52 41 48 16 32 37 28 20 28 36 38 38
31 29 28 25 22 22 22 19 13 5 5 5 5 6 9 11 14 17 19 21 18 17 21 23 20 24 23 17 19 30 36 43 22 18 7 25 13 18 22 32 15 21 30 41 39
31 27 26 24 23 21 18 11 6 6 5 3 5 12 17 19 16 15 15 14 15 10 11 22 13 17 16 17 21 25 32 9 4 3 6 22 17 16 23 34 31 9 6 28 36
26 23 24 21 19 16 11 6 7 4 7 11 11 21 19 12 8 10 14 17 19 11 20 9 11 5 5 17 25 26 22 9 8 6 15 37 5 14 40 35 24 15 17 13 17
25 23 22 17 21 15 10 6 5 5 8 17 24 9 6 3 8 15 17 20 15 10 7 9 7 10 27 18 16 15 19 21 12 20 7 11 17 12 52 51 27 19 7 20 19
22 26 23 23 18 15 15 11 10 11 18 19 12 7 8 15 19 9 9 9 10 11 17 11 19 19 7 23 19 15 13 9 8 5 6 8 15 21 48 55 38 22 17 6 15
23 26 21 26 18 24 16 15 13 14 17 13 17 20 22 16 12 17 10 17 19 14 11 18 14 13 27 22 28 19 17 11 16 11 4 5 9 29 40 46 42 30 11 5 11
25 28 23 25 20 21 13 16 13 23 14 14 16 14 14 22 18 14 13 12 19 19 20 19 13 16 27 18 14 6 5 13 9 9 16 7 10 18 37 43 40 27 13 6 6
26 28 21 22 22 17 10 14 23 23 16 16 17 22 20 21 15 7 12 14 16 21 12 23 8 15 15 8 18 22 28 23 25 17 12 5 8 14 27 36 35 31 16 4 9
25 19 32 28 18 15 19 25 18 19 25 24 26 28 23 22 18 15 15 12 17 20 21 19 15 16 14 22 29 34 37 32 23 19 21 27 31 30 27 32 31 23 25 9 7
21 27 25 32 30 27 26 23 25 30 25 27 30 20 20 21 26 29 22 19 27 24 27 22 25 27 28 30 29 33 33 33 30 31 24 41 41 38 34 35 27 26 17 19 10
22 23 26 28 25 28 24 30 34 26 26 32 30 20 25 30 27 32 31 25 32 28 19 18 23 22 34 32 25 29 28 28 31 29 30 33 46 34 23 25 27 26 19 9 11
27 26 25 29 28 25 25 26 31 24 32 24 25 26 37 31 32 31 28 32 32 29 28 28 27 22 28 22 21 22 16 11 17 17 18 24 27 22 17 14 15 18 19 13 11
Wind_Direction
334 334 332 331 328 325 320 316 311 306 301 296 289 283 282 283 288 291 289 303 295 300 301 294 285 285 280 274 268 262 261 262 270 275 275 276 273 255 243 244 223 235 232 227 222
330 328 326 324 321 320 317 314 309 304 299 295 289 285 284 283 285 291 290 292 302 307 302 294 293 294 279 266 260 257 261 268 278 277 277 276 270 265 256 242 230 229 234 224 220
325 324 320 317 314 311 308 306 304 302 298 294 290 287 285 287 292 293 290 299 303 307 299 297 293 289 286 280 278 273 271 283 277 277 274 272 267 263 258 250 241 233 232 225 221
331 329 321 317 312 308 306 303 301 298 295 293 290 287 285 289 296 288 298 298 304 308 306 302 292 289 289 285 277 276 291 288 285 278 273 272 275 264 258 263 253 242 239 231 220
321 319 312 315 310 305 302 297 293 291 292 293 292 288 287 284 283 283 292 294 301 305 304 301 294 295 299 304 297 294 304 287 281 273 271 276 269 272 266 262 252 251 241 240 227
320 317 313 311 307 304 303 296 293 288 288 294 293 288 286 284 278 275 290 289 298 304 305 303 302 302 305 309 304 310 300 296 283 278 281 272 276 272 266 272 269 251 243 241 239
320 320 316 310 308 304 299 295 289 286 291 294 286 285 284 282 276 283 279 289 304 305 303 305 309 314 314 311 310 311 303 300 295 291 281 284 272 262 275 277 272 265 255 242 240
324 324 324 318 316 311 311 302 290 288 291 286 287 289 289 277 281 284 277 293 302 300 298 299 302 300 301 304 302 299 299 301 323 310 294 269 273 278 281 278 273 267 262 249 235
338 329 328 319 321 316 313 306 300 296 290 290 292 290 287 278 267 294 296 291 299 295 299 296 294 300 296 291 290 298 288 298 313 317 305 267 282 287 286 278 270 270 260 256 239
327 331 328 326 330 326 326 314 303 302 300 295 292 293 271 274 293 292 293 290 296 302 294 292 289 285 303 278 271 298 294 296 294 312 289 276 279 284 280 276 266 262 257 253 241
322 326 330 329 331 327 323 324 311 306 305 298 287 285 278 286 287 281 280 292 293 296 295 296 281 289 308 297 301 301 297 295 316 325 298 291 288 285 279 274 264 257 257 252 240
325 336 334 325 325 319 320 318 315 311 309 307 294 279 276 269 279 276 287 294 292 303 295 281 284 314 301 303 301 302 296 295 308 317 297 295 287 282 281 273 265 258 251 252 246
326 330 329 324 323 321 315 310 310 310 315 314 300 296 263 252 260 275 280 287 296 298 298 281 303 300 292 296 289 295 289 302 295 317 297 286 284 287 290 287 268 256 253 244 245
330 323 326 320 323 319 314 309 308 315 314 315 331 321 310 246 274 282 297 295 295 292 290 288 303 309 305 296 298 286 324 302 298 296 282 296 285 298 294 294 272 252 231 239 226
327 329 324 324 319 315 313 313 309 317 332 330 348 335 310 283 291 295 292 292 294 293 281 278 294 297 289 307 293 301 316 303 299 294 287 290 244 276 298 302 264 245 225 218 213
332 331 325 322 318 313 310 307 305 295 265 313 324 340 322 310 296 288 289 295 307 302 291 295 294 292 299 302 298 312 306 310 308 291 253 293 247 287 330 330 291 243 235 225 224
338 339 329 325 320 317 307 303 281 221 299 293 317 323 318 316 302 296 299 301 302 295 297 309 326 323 308 305 315 311 313 310 317 246 250 305 312 285 357 346 329 273 257 230 227
335 342 338 336 335 331 323 294 237 259 277 293 317 319 302 312 312 319 307 310 309 288 278 292 316 303 306 304 311 307 295 280 315 308 297 313 264 344 347 351 347 325 286 271 203
336 347 346 340 335 331 323 269 259 275 294 310 312 311 281 290 318 310 304 301 285 273 263 290 263 278 305 283 290 294 286 306 272 283 271 288 334 8 359 7 11 351 306 223 208
334 333 339 338 339 332 318 294 273 283 304 311 314 284 287 297 309 304 306 295 295 289 288 280 292 312 309 311 315 288 289 301 293 309 299 309 322 344 359 1 3 14 12 222 212
330 322 326 334 319 332 317 311 312 330 318 313 305 295 294 302 299 307 284 296 287 286 276 296 286 280 310 315 314 298 313 314 313 274 297 320 318 341 355 0 1 358 6 36 226
307 320 321 330 321 330 321 304 309 331 329 316 316 309 300 301 302 298 284 275 288 292 313 306 291 297 317 327 309 253 288 353 322 328 300 283 296 355 6 4 3 2 15 63 144
309 312 323 316 315 307 323 312 296 305 315 311 307 302 306 294 296 272 281 295 300 306 303 304 293 315 323 314 308 322 310 316 318 315 289 266 272 327 330 353 359 7 354 114 179
314 291 310 308 310 273 304 312 303 299 292 311 306 310 292 289 298 281 275 298 307 298 293 285 271 280 271 288 303 302 308 309 306 292 294 277 296 291 318 339 343 352 8 5 182
302 295 294 299 308 291 308 306 306 318 308 321 310 306 300 297 308 297 284 280 296 293 273 267 278 289 290 292 297 300 299 302 294 282 267 284 287 283 302 314 329 332 342 8 352
314 305 308 301 296 292 285 300 305 312 297 305 304 294 309 306 303 300 291 298 304 306 297 291 270 278 288 301 304 300 291 288 293 294 290 284 284 296 297 290 304 312 320 324 359
330 325 311 311 311 302 302 297 303 299 304 299 299 294 302 299 298 297 286 296 296 288 285 275 271 276 282 298 310 295 305 311 293 299 295 289 286 292 292 291 290 296 302 304 300
Height
3120 3117 3115 3113 3110 3108 3106 3104 3102 3100 3098 3096 3095 3094 3092 3090 3089 3088 3086 3085 3084 3082 3080 3078 3076 3077 3076 3075 3077 3076 3075 3071 3071 3073 3072 3078 3078 3081 3080 3074 3080 3083 3087 3093 3099
3117 3115 3112 3110 3107 3104 3102 3099 3097 3095 3093 3092 3090 3089 3087 3086 3085 3084 3084 3081 3079 3077 3076 3074 3072 3071 3072 3072 3071 3072 3069 3066 3068 3068 3064 3067 3070 3071 3070 3068 3070 3070 3074 3082 3087
3113 3111 3108 3105 3103 3100 3097 3094 3092 3090 3088 3086 3085 3084 3083 3082 3081 3079 3078 3077 3075 3074 3073 3071 3069 3068 3068 3067 3068 3064 3060 3062 3061 3061 3059 3058 3058 3061 3058 3051 3061 3061 3064 3070 3075
3111 3108 3105 3102 3099 3096 3093 3090 3087 3084 3082 3080 3079 3079 3078 3078 3080 3075 3074 3073 3071 3070 3068 3067 3064 3064 3064 3062 3062 3056 3056 3055 3055 3056 3053 3050 3050 3046 3047 3041 3053 3052 3052 3057 3062
3106 3104 3100 3097 3095 3093 3089 3086 3083 3080 3078 3076 3074 3073 3073 3074 3074 3072 3071 3069 3068 3067 3065 3063 3062 3061 3059 3059 3056 3053 3051 3048 3047 3045 3043 3043 3038 3035 3030 3035 3041 3042 3042 3044 3049
3103 3099 3095 3092 3090 3087 3084 3082 3079 3076 3074 3072 3070 3070 3070 3070 3069 3068 3067 3065 3064 3063 3061 3060 3058 3056 3053 3051 3049 3045 3042 3039 3039 3036 3034 3033 3029 3028 3017 3024 3026 3029 3029 3029 3037
3100 3096 3092 3089 3085 3081 3078 3075 3074 3071 3070 3068 3066 3065 3065 3065 3065 3065 3063 3062 3060 3059 3058 3055 3053 3050 3048 3046 3044 3040 3034 3030 3030 3028 3022 3029 3010 3000 3012 3017 3011 3012 3014 3021 3023
3096 3092 3088 3085 3080 3077 3073 3070 3068 3066 3065 3063 3062 3061 3061 3060 3060 3060 3059 3057 3056 3054 3053 3050 3047 3046 3044 3044 3040 3035 3032 3017 3019 3019 3017 3021 2983 2991 3002 3005 3000 3000 3001 3004 3007
3093 3089 3084 3080 3075 3072 3069 3066 3064 3062 3060 3059 3058 3057 3057 3056 3056 3056 3055 3054 3052 3050 3048 3047 3045 3044 3043 3041 3037 3031 3022 3014 3005 3008 3006 3007 2979 2982 2989 2992 2987 2987 2987 2987 2989
3090 3086 3081 3077 3072 3068 3065 3062 3060 3058 3057 3055 3053 3054 3053 3053 3052 3051 3050 3049 3048 3045 3045 3044 3041 3039 3037 3037 3031 3027 3019 3010 3004 3004 3003 2996 2976 2972 2975 2977 2972 2972 2972 2973 2973
3086 3082 3079 3075 3071 3067 3064 3059 3059 3055 3052 3052 3049 3047 3046 3047 3046 3046 3045 3045 3044 3043 3042 3039 3038 3033 3033 3030 3025 3020 3014 3004 2991 2994 2993 2981 2962 2956 2958 2959 2955 2954 2955 2957 2960
3083 3079 3075 3071 3068 3064 3061 3057 3054 3051 3044 3045 3042 3040 3040 3040 3041 3042 3042 3043 3041 3039 3037 3037 3029 3030 3026 3024 3019 3014 3009 2992 2977 2986 2988 2969 2946 2942 2942 2938 2936 2934 2939 2943 2948
3078 3074 3071 3067 3064 3061 3059 3056 3052 3048 3044 3039 3036 3036 3036 3037 3037 3039 3040 3039 3037 3035 3034 3031 3027 3025 3022 3018 3015 3010 3003 2991 2989 2971 2970 2963 2929 2927 2923 2919 2913 2915 2919 2927 2933
3074 3070 3066 3062 3062 3057 3054 3052 3049 3046 3040 3039 3037 3035 3036 3036 3037 3036 3036 3037 3034 3032 3030 3024 3022 3020 3017 3012 3012 3002 3000 2990 2981 2977 2959 2955 2932 2906 2911 2898 2896 2893 2902 2911 2919
3070 3066 3061 3058 3055 3053 3051 3048 3047 3046 3044 3038 3036 3036 3035 3037 3036 3034 3033 3030 3028 3027 3027 3021 3018 3016 3011 3007 3006 2994 2992 2985 2975 2967 2957 2936 2939 2906 2901 2890 2884 2889 2895 2901 2908
3066 3062 3058 3055 3053 3050 3047 3045 3045 3047 3039 3036 3035 3035 3035 3034 3033 3030 3029 3027 3024 3021 3018 3015 3014 3010 3006 3003 3000 2994 2985 2976 2965 2961 2954 2930 2931 2909 2903 2896 2884 2888 2892 2894 2898
3064 3060 3055 3051 3048 3045 3042 3043 3045 3041 3038 3036 3033 3033 3032 3030 3028 3026 3025 3023 3021 3018 3014 3012 3006 3004 3002 2999 2998 2993 2987 2973 2966 2959 2948 2930 2925 2915 2907 2899 2889 2885 2886 2890 2896
3060 3057 3052 3048 3045 3042 3040 3041 3040 3035 3034 3034 3032 3030 3026 3025 3025 3023 3021 3019 3017 3015 3011 3008 3002 3003 3002 2999 2995 2989 2988 2984 2970 2959 2944 2926 2923 2918 2914 2899 2887 2880 2880 2885 2893
3056 3055 3051 3047 3044 3041 3040 3038 3034 3033 3032 3030 3029 3025 3024 3023 3024 3021 3017 3014 3013 3012 3012 3006 3000 2999 2999 2994 2994 2987 2984 2980 2970 2957 2947 2928 2922 2918 2906 2899 2891 2881 2881 2890 2897
3054 3053 3050 3047 3042 3040 3040 3037 3034 3033 3032 3029 3027 3025 3024 3021 3020 3018 3014 3012 3011 3009 3007 3004 2995 2993 2991 2990 2988 2983 2980 2975 2971 2960 2949 2932 2921 2919 2912 2899 2898 2886 2882 2882 2893
3051 3048 3046 3044 3042 3040 3037 3036 3034 3033 3032 3029 3026 3024 3021 3018 3016 3014 3012 3011 3007 3005 3004 3001 2996 2991 2990 2986 2983 2982 2978 2974 2972 2966 2954 2946 2930 2925 2917 2911 2903 2901 2894 2893 2895
3047 3045 3044 3042 3041 3038 3036 3032 3032 3029 3028 3026 3023 3020 3018 3017 3011 3010 3007 3007 3005 3003 3000 2999 2993 2987 2986 2980 2976 2975 2976 2976 2972 2965 2960 2954 2939 2933 2926 2917 2914 2908 2905 2905 2905
3043 3039 3038 3037 3035 3031 3029 3029 3026 3024 3023 3020 3019 3016 3014 3012 3011 3005 3003 3002 3001 3001 2999 2997 2993 2987 2981 2982 2977 2974 2973 2975 2973 2966 2956 2953 2942 2934 2933 2926 2917 2918 2912 2912 2915
3040 3038 3035 3031 3030 3027 3025 3023 3022 3020 3017 3015 3012 3011 3008 3006 3007 3001 3000 2998 2997 2996 2994 2993 2989 2990 2987 2984 2981 2975 2966 2968 2971 2965 2957 2947 2940 2937 2935 2931 2928 2927 2918 2913 2914
3038 3035 3032 3027 3026 3025 3022 3019 3017 3016 3012 3010 3005 3005 3003 3000 2998 2996 2994 2992 2992 2990 2988 2988 2983 2983 2980 2979 2977 2972 2967 2959 2959 2958 2955 2940 2939 2938 2939 2935 2930 2924 2921 2922 2919
3036 3031 3026 3021 3020 3020 3019 3014 3011 3009 3008 3004 3002 3001 2998 2995 2994 2990 2989 2988 2982 2983 2982 2980 2977 2976 2971 2972 2971 2965 2959 2956 2952 2949 2943 2941 2930 2939 2940 2933 2930 2927 2924 2926 2924
3032 3029 3022 3017 3013 3012 3009 3008 3006 3004 2999 2997 2996 2994 2990 2989 2987 2983 2981 2979 2977 2976 2975 2975 2974 2973 2964 2967 2965 2959 2952 2950 2948 2945 2942 2938 2936 2934 2934 2934 2931 2928 2926 2923 2919